Location: Enid
(36.3960°N, 97.8780°W)
Time: 10:19:13
(UTC-05:00)

Hubble Space Telescope - Visible Passes

Search period start: 31 August 2015 00:00
Search period end: 10 September 2015 00:00
Orbit: 541 x 545 km, 28.5° (Epoch: 30 August)

Date Brightness Start Highest point End Pass type
(mag) Time Alt. Az. Time Alt. Az. Time Alt. Az.
04 Sep 2.6 06:29:30 10° SW 06:32:40 21° S 06:35:53 10° ESE visible
05 Sep 2.4 06:20:19 10° SW 06:23:39 24° S 06:27:00 10° ESE visible
06 Sep 2.2 06:11:53 14° SW 06:14:37 25° S 06:18:04 10° ESE visible
07 Sep 2.1 06:03:27 17° SW 06:05:36 26° S 06:09:06 10° ESE visible
08 Sep 2.1 05:55:03 21° SW 05:56:34 27° S 06:00:07 10° ESE visible
09 Sep 2.0 05:46:40 25° SSW 05:47:33 27° S 05:51:04 10° ESE visible
